Date String (YYYY-MM-DD hh:mm:ss) UTC,Instrument flags,Ambient pressure (hPa),Sample flow (lpm),Bypass flow (lpm),Sample temperature (°C),Ambient temperature (°C),ASC tube jacket temperature (°C),LED temperature (°C),Box temperature (°C),Sample RH (%),Span deviation,Mass concentration (μg/m³),Mass concentration (μg/m³),Mass concentration (μg/m³)
DateTimeUTC,F1_M11,P_M11,Q1_M11,Q2_M11,T1_M11,T2_M11,T3_M11,T4_M11,T5_M11,U1_M11,ZSPAN_M11,X2_M11,X0_M11,X1_M11
2022-05-03 22:00:00,,0818.5,5.00,0.00,25.4,24.5,00.0,34.3,27.3,20.4,-001.5,0010.05,0013.60,0009.65
2022-05-03 22:01:00,,0818.5,5.01,0.00,25.4,24.5,00.0,34.3,27.3,20.0,-001.7,0010.06,0014.28,0009.67
2022-05-03 22:02:00,,0818.6,5.00,0.00,25.4,24.5,00.0,34.3,27.3,20.0,-001.8,0010.08,0014.42,0009.68
2022-05-03 22:03:00,,0818.7,5.01,0.00,25.4,24.5,00.0,34.3,27.3,20.2,-001.9,0010.11,0014.46,0009.69
2022-05-03 22:04:00,,0818.7,5.00,0.00,25.4,24.6,00.0,34.3,27.3,20.5,-002.0,0010.11,0014.47,0009.69
2022-05-03 22:05:00,,0818.7,5.01,0.00,25.4,24.6,00.0,34.3,27.3,20.8,-002.4,0010.08,0014.48,0009.67
2022-05-03 22:06:00,,0818.8,4.98,0.00,25.4,24.6,00.0,34.3,27.3,20.6,-002.7,0010.09,0014.65,0009.67
2022-05-03 22:07:00,,0818.8,5.02,0.00,25.4,24.6,00.0,34.3,27.3,20.7,-002.7,0010.14,0015.22,0009.70
2022-05-03 22:08:00,,0818.8,5.00,0.00,25.5,24.6,00.0,34.3,27.3,21.1,-002.9,0010.20,0015.73,0009.72
2022-05-03 22:09:00,,0818.7,5.00,0.00,25.5,24.6,00.0,34.3,27.4,20.8,-002.9,0010.24,0016.84,0009.74
2022-05-03 22:10:00,,0818.7,5.00,0.00,25.5,24.7,00.0,34.4,27.4,20.7,-002.8,0010.28,0017.77,0009.76
2022-05-03 22:11:00,,0818.8,4.99,0.00,25.5,24.7,00.0,34.4,27.4,20.6,-002.8,0010.30,0017.75,0009.78
2022-05-03 22:12:00,,0818.8,5.00,0.00,25.5,24.7,00.0,34.4,27.4,20.8,-002.7,0010.30,0017.37,0009.76
2022-05-03 22:13:00,,0818.8,4.99,0.00,25.5,24.7,00.0,34.4,27.4,20.8,-002.7,0010.33,0017.29,0009.77
2022-05-03 22:14:00,,0818.8,5.00,0.00,25.5,24.7,00.0,34.4,27.4,20.4,-002.8,0010.32,0017.34,0009.78
2022-05-03 22:15:00,,0818.9,5.00,0.00,25.6,24.7,00.0,34.4,27.4,20.4,-002.9,0010.33,0017.42,0009.80
2022-05-03 22:16:00,,0818.9,4.99,0.00,25.6,24.8,00.0,34.4,27.4,20.5,-002.8,0010.37,0017.42,0009.84
2022-05-03 22:17:00,,0818.8,5.01,0.00,25.6,24.8,00.0,34.4,27.5,20.8,-002.7,0010.41,0017.42,0009.87
2022-05-03 22:18:00,,0818.8,4.99,0.00,25.6,24.8,00.0,34.4,27.5,20.7,-002.7,0010.41,0017.10,0009.88
2022-05-03 22:19:00,,0818.7,4.99,0.00,25.6,24.8,00.0,34.5,27.5,20.5,-002.6,0010.46,0016.97,0009.92
2022-05-03 22:20:00,,0818.7,5.02,0.00,25.6,24.8,00.0,34.5,27.5,20.3,-002.5,0010.45,0016.14,0009.95
2022-05-03 22:21:00,,0818.6,5.01,0.00,25.6,24.8,00.0,34.5,27.5,20.4,-002.5,0010.49,0015.69,0009.98
2022-05-03 22:22:00,,0818.5,4.99,0.00,25.7,24.8,00.0,34.5,27.5,20.5,-002.7,0010.53,0015.57,0010.00
2022-05-03 22:23:00,,0818.5,5.00,0.00,25.7,24.8,00.0,34.5,27.6,20.6,-002.8,0010.53,0015.34,0010.03
2022-05-03 22:24:00,,0818.5,4.99,0.00,25.7,24.8,00.0,34.5,27.6,20.8,-002.7,0010.51,0015.27,0010.04
2022-05-03 22:25:00,,0818.5,5.00,0.00,25.7,24.8,00.0,34.5,27.6,20.6,-002.6,0010.56,0015.29,0010.06
2022-05-03 22:26:00,,0818.4,5.01,0.00,25.7,24.9,00.0,34.5,27.6,20.8,-002.4,0010.59,0015.25,0010.07
2022-05-03 22:27:00,,0818.4,4.99,0.00,25.7,24.9,00.0,34.6,27.6,21.0,-002.5,0010.62,0015.34,0010.09
2022-05-03 22:28:00,,0818.4,5.01,0.00,25.7,24.9,00.0,34.6,27.6,20.9,-002.4,0010.65,0015.56,0010.11
2022-05-03 22:29:00,,0818.4,5.00,0.00,25.7,24.9,00.0,34.6,27.6,20.7,-002.3,0010.69,0015.78,0010.15
2022-05-03 22:30:00,,0818.4,5.00,0.00,25.8,24.9,00.0,34.6,27.7,20.8,-002.4,0010.68,0015.65,0010.17
2022-05-03 22:31:00,,0818.4,5.01,0.00,25.8,24.9,00.0,34.6,27.7,20.9,-002.3,0010.71,0015.58,0010.19
2022-05-03 22:32:00,,0818.4,4.98,0.00,25.8,24.9,00.0,34.6,27.7,20.7,-002.2,0010.68,0015.33,0010.20
2022-05-03 22:33:00,,0818.4,5.00,0.00,25.8,25.0,00.0,34.6,27.7,20.6,-002.0,0010.70,0015.90,0010.21
2022-05-03 22:34:00,,0818.3,5.01,0.00,25.8,25.0,00.0,34.6,27.7,20.7,-001.9,0010.73,0016.01,0010.20
2022-05-03 22:35:00,,0818.2,5.00,0.00,25.8,25.0,00.0,34.6,27.7,21.0,-001.9,0010.75,0016.19,0010.21
2022-05-03 22:36:00,,0818.1,5.00,0.00,25.8,25.0,00.0,34.7,27.7,20.9,-001.8,0010.72,0016.26,0010.21
2022-05-03 22:37:00,,0818.0,5.01,0.00,25.8,25.0,00.0,34.7,27.7,21.0,-001.6,0010.69,0016.21,0010.20
2022-05-03 22:38:00,,0818.0,4.99,0.00,25.8,25.0,00.0,34.7,27.7,21.0,-001.5,0010.66,0016.33,0010.19
2022-05-03 22:39:00,,0818.0,5.00,0.00,25.8,25.0,00.0,34.7,27.7,21.0,-001.3,0010.66,0016.47,0010.17
2022-05-03 22:40:00,,0818.2,5.02,0.00,25.8,25.0,00.0,34.7,27.7,21.2,-001.4,0010.62,0016.03,0010.12
2022-05-03 22:41:00,,0818.4,4.99,0.00,25.9,25.0,00.0,34.7,27.7,21.2,-001.5,0010.59,0016.19,0010.07
2022-05-03 22:42:00,,0818.4,5.02,0.00,25.9,25.0,00.0,34.7,27.7,20.8,-001.7,0010.56,0016.65,0010.04
2022-05-03 22:43:00,,0818.5,4.99,0.00,25.9,25.0,00.0,34.7,27.7,20.8,-001.8,0010.53,0016.71,0010.00
2022-05-03 22:44:00,,0818.4,4.99,0.00,25.9,25.1,00.0,34.7,27.8,20.7,-001.9,0010.50,0016.07,0009.96
2022-05-03 22:45:00,,0818.4,5.01,0.00,25.9,25.1,00.0,34.7,27.8,20.5,-002.0,0010.47,0015.99,0009.96
2022-05-03 22:46:00,,0818.4,4.99,0.00,25.9,25.1,00.0,34.7,27.8,20.7,-002.0,0010.46,0015.87,0009.95
2022-05-03 22:47:00,,0818.4,5.00,0.00,25.9,25.1,00.0,34.8,27.8,20.9,-002.0,0010.44,0015.70,0009.92
2022-05-03 22:48:00,,0818.4,5.00,0.00,25.9,25.1,00.0,34.8,27.8,21.4,-002.3,0010.41,0015.91,0009.87
2022-05-03 22:49:00,,0818.4,5.00,0.00,25.9,25.1,00.0,34.8,27.8,21.5,-002.4,0010.35,0015.89,0009.81
2022-05-03 22:50:00,,0818.4,5.00,0.00,25.9,25.1,00.0,34.8,27.8,21.3,-002.4,0010.25,0015.50,0009.77
2022-05-03 22:51:00,,0818.4,4.98,0.00,25.9,25.1,00.0,34.8,27.8,21.3,-002.3,0010.17,0015.35,0009.72
2022-05-03 22:52:00,,0818.4,5.00,0.00,26.0,25.1,00.0,34.8,27.8,21.1,-002.2,0010.09,0014.94,0009.68
2022-05-03 22:53:00,,0818.4,4.99,0.00,25.9,25.1,00.0,34.8,27.8,21.3,-002.1,0010.01,0014.26,0009.61
2022-05-03 22:54:00,,0818.5,5.01,0.00,26.0,25.1,00.0,34.8,27.8,21.8,-001.9,0009.94,0013.93,0009.54
2022-05-03 22:55:00,,0818.4,5.00,0.00,26.0,25.1,00.0,34.8,27.8,21.4,-001.8,0009.83,0013.84,0009.45
2022-05-03 22:56:00,,0818.4,5.00,0.00,26.0,25.1,00.0,34.8,27.8,21.0,-001.5,0009.77,0014.24,0009.39
2022-05-03 22:57:00,,0818.4,4.99,0.00,26.0,25.1,00.0,34.8,27.9,20.6,-001.6,0009.73,0014.24,0009.34
2022-05-03 22:58:00,,0818.4,5.00,0.00,26.0,25.1,00.0,34.8,27.9,20.7,-001.6,0009.70,0014.15,0009.30
2022-05-03 22:59:00,,0818.5,5.01,0.00,26.0,25.1,00.0,34.8,27.9,20.7,-001.5,0009.67,0014.14,0009.29
